Regional Weather Roundup
Issued by NWS Sterling, VA

Home | Current Version | Previous Version | Text Only | Print | Product List | Glossary Off
Versions: 1 2 3 4 5 6 7 8 9 10 11 12 13 14 15 16 17 18 19 20 21 22 23 24 25 26 27 28

000
ASUS41 KLWX 150810
RWRLWX

REGIONAL WEATHER ROUNDUP
NATIONAL WEATHER SERVICE BALTIMORE MD/WASHINGTON DC
400 AM EDT TUE APR 15 2014

Note: "FAIR" indicates few or no clouds below 12,000 feet
with no significant weather and/or obstructions to visibility.
 TC=TEMPERATURE CELSIUS

 * =Non NWS site. Station does not report precipitation (e.g. rain,
    snow, etc.), thunder, or fog.

DCZ001-MDZ009-015-VAZ040>042-051-053>054-150900-
WASHINGTON METRO

CITY           SKY/WX    TMP DP  RH WIND       PRES   REMARKS
WASHINGTON NAT CLOUDY    69  59  70 S12       29.72F
DULLES         CLOUDY    66  59  78 S15G21    29.70F
ANDREWS AFB    CLOUDY    67  59  75 S12       29.73F
FT BELVOIR     CLOUDY    69  60  74 S8        29.72F
QUANTICO       CLOUDY    66  59  78 S13       29.73F
COLLEGE PARK*  CLOUDY    68  61  77 S5        29.72F
LEESBURG*        N/A     68  63  83 S10         N/A
MANASSAS*      CLOUDY    66  63  88 S9        29.71F
GAITHERSBURG*  CLOUDY    66  57  72 S8G17     29.74F

$$

MDZ006>007-011-014-150900-
BALTIMORE METRO

CITY           SKY/WX    TMP DP  RH WIND       PRES   REMARKS
BWI AIRPORT    CLOUDY    63  57  81 SE9       29.72F
MD SCIENCE CTR   N/A     64  58  80 MISG      29.73F
MARTIN STATE   CLOUDY    63  61  94 SE12      29.75F
ANNAPOLIS      CLOUDY    61  59  93 S14G22    29.74F
FORT MEADE*    CLOUDY    63  55  77 SE7       29.75F

$$

MDZ012-015-019>023-150900-
MARYLAND EASTERN SHORE

CITY           SKY/WX    TMP DP  RH WIND       PRES   REMARKS
OCEAN CITY     CLOUDY    57  53  86 SW9       29.84F FOG
SALISBURY      CLOUDY    67  63  87 S15G23    29.80F
BAY BRIDGE AP* CLOUDY    63  63 100 S12G18    29.75F
CAMBRIDGE*     CLOUDY    66  63  88 S10G21    29.77F
EASTON*        CLOUDY    67  67 100 S13G20    29.80F

$$

MDZ017>025-150900-
SOUTHERN MARYLAND

CITY           SKY/WX    TMP DP  RH WIND       PRES   REMARKS
PATUXENT RIVER CLOUDY    56  54  93 SE10      29.76F
ST INIGOES     MOCLDY    63  59  87 SE8       29.76F
LEONARDTOWN*   CLOUDY    63  59  88 SE5       29.77F

$$

MDZ003>005-150900-
NORTH CENTRAL MARYLAND

CITY           SKY/WX    TMP DP  RH WIND       PRES   REMARKS
FREDERICK*     RAIN      68  63  83 S12       29.72S
HAGERSTOWN APT LGT RAIN  65  59  81 S10       29.65F
WESTMINSTER*   CLOUDY    64  61  88 S13G18      N/A

$$

MDZ501>502-150900-
WESTERN MARYLAND

CITY           SKY/WX    TMP DP  RH WIND       PRES   REMARKS
OAKLAND*       CLOUDY    54 N/A N/A SE9       29.65F
CUMBERLAND*    CLOUDY    59  59 100 CALM      29.67F VSB 3/4

$$

VAZ025>031-150900-
SHENANDOAH VALLEY

CITY           SKY/WX    TMP DP  RH WIND       PRES   REMARKS
WINCHESTER*    CLOUDY    64  59  82 S8G18     29.67F
STAUNTON*      RAIN      61  59  92 S7        29.69F

$$

WVZ021-048>050-054>055-150900-
EASTERN WEST VIRGINIA PANHANDLE

CITY           SKY/WX    TMP DP  RH WIND       PRES   REMARKS
MARTINSBURG    CLOUDY    66  57  72 S13       29.66F
PETERSBURG*    RAIN      65  63  93 CALM      29.66S

$$

VAZ036>039-050-150900-
CENTRAL FOOTHILLS

CITY           SKY/WX    TMP DP  RH WIND       PRES   REMARKS
CHARLOTTESVILL NOT AVBL
CULPEPER*      CLOUDY    66  66 100 S6        29.70F

$$

VAZ055>057-150900-
NORTH AND CENTRAL PIEDMONT

CITY           SKY/WX    TMP DP  RH WIND       PRES   REMARKS
FREDERICKSBRG* CLOUDY    70  61  73 S12       29.71F
STAFFORD*      CLOUDY    69  61  77 S7        29.76F

$$

NCZ024-NYZ072-PAZ021-071-VAZ022-071-150900-
OTHER REGIONAL OBSERVATIONS

CITY           SKY/WX    TMP DP  RH WIND       PRES   REMARKS
NEW YORK CITY  CLOUDY    58  53  84 S5        29.84F
PHILADELPHIA   CLOUDY    63  58  83 S10       29.78F
PITTSBURGH     CLOUDY    63  54  72 S6        29.53F
ROANOKE        LGT RAIN  60  59  96 CALM      29.71F FOG
RICHMOND       CLOUDY    70  62  76 S15       29.74F
RALEIGH        LGT RAIN  68  64  87 S9G21     29.77F

$$

ANZ530>537-150900-
MARINE OBSERVATIONS

STATION/POSITION TIME  TEMP    WIND        PRES
                       AIR SEA DIR/SP/G
                 (UTC) (F)     (DEG/KT/KT) (MB)
THOMAS PT LIGHT  0800   57 53  160/ 16/ 17 1007.5F
BALT KEY BRIDGE  0800   62     140/ 14/ 16 1006.7F
COVE POINT       0800   56     190/ 18/ 21 1007.8F
LEWISETTA        0800   63 53  170/  8/ 10 1007.6F
SOLOMONS ISLAND  0800      53                N/A
PINEY POINT      0800          160/ 12/ 12   N/A

$$




USA.gov is the U.S. government's official web portal to all federal, state and local government web resources and services.